Flight Track Log - Related Links

Times and Time Zones

All times are in EDT time to prevent confusion due to time zone crossing. See the ABX904 flight status page for this flight to view local times or setup timezone preferences in your user account.

Time Position Orientation Groundspeed Altitude Reporting Facility
EDT Latitude Longitude Course Direction KTS MPH feet Rate Location/Type
Tue 11:22:57 AM 47.5225 -122.2950 156° South 287 330 800  Level Seattle Center
Tue 11:23:15 AM 47.5064 -122.2842 156° South 210 242 1,700 2,354 Climbing Seattle Center
Tue 11:24:16 AM 47.4625 -122.2428 147° Southeast 180 207 3,900 2,135 Climbing Seattle Center
Tue 11:24:59 AM 47.4547 -122.1672 99° East 248 285 5,400 2,066 Climbing Seattle Center
Tue 11:25:17 AM 47.4544 -122.1325 91° East 281 323 6,000 2,852 Climbing Seattle Center
Tue 11:26:00 AM 47.4636 -122.0542 80° East 283 326 8,300 3,148 Climbing Seattle Center
Tue 11:26:18 AM 47.4828 -122.0347 34° Northeast 288 331 9,200 1,672 Climbing Seattle Center
Tue 11:27:01 AM 47.5319 -122.0417 355° North 267 307 10,000 800 Climbing Seattle Center
Tue 11:27:18 AM 47.5525 -122.0550 336° Northwest 262 302 10,000  Level Seattle Center
Tue 11:28:02 AM 47.6000 -122.0828 338° Northwest 264 304 10,000  Level Seattle Center
Tue 11:28:20 AM 47.6236 -122.0975 337° Northwest 288 331 10,000 98 Level Seattle Center
Tue 11:29:03 AM 47.6817 -122.1322 338° Northwest 293 337 10,100 500 Climbing Seattle Center
Tue 11:29:20 AM 47.6997 -122.1439 336° Northwest 302 348 10,500 1,770 Climbing Seattle Center
Tue 11:30:04 AM 47.7583 -122.1794 338° Northwest 299 344 11,900 857 Climbing Seattle Center
Tue 11:31:05 AM 47.8417 -122.2303 338° Northwest 370 426 12,000 49 Climbing Seattle Center
Tue 11:32:06 AM 47.9622 -122.2919 341° North 385 443 12,000  Level Seattle Center
Tue 11:33:07 AM 48.0669 -122.3208 350° North 383 441 12,000  Level Seattle Center
Tue 11:34:08 AM 48.1708 -122.3506 349° North 383 441 12,000  Level Seattle Center
Tue 11:35:09 AM 48.2753 -122.3806 349° North 383 441 12,000  Level Seattle Center
Tue 11:36:10 AM 48.3800 -122.4097 350° North 385 443 12,000  Level Seattle Center
Tue 11:37:11 AM 48.4833 -122.4422 348° North 379 436 12,000  Level Seattle Center
Tue 11:38:12 AM 48.5864 -122.4700 350° North 378 435 12,000  Level Seattle Center
Tue 11:39:12 AM 48.6850 -122.5006 348° North 371 427 12,000  Level Seattle Center
Tue 11:40:13 AM 48.7456 -122.5678 324° Northwest 300 345 12,000  Level Seattle Center
Tue 11:41:14 AM 48.8019 -122.6669 311° West 301 346 12,000  Level Seattle Center
Tue 11:42:25 AM 48.8500 -122.7833 302° West 300 345 12,000 -229 Level Vancouver Center
Tue 11:43:25 AM 48.9167 -122.8833 315° West 310 357 11,500 -750 Descending Vancouver Center
Tue 11:44:25 AM 48.9667 -122.9833 307° West 300 345 10,500 -750 Descending Vancouver Center
Tue 11:45:25 AM 49.0167 -123.0667 312° West 290 334 10,000 -700 Descending Vancouver Center
Tue 11:46:25 AM 49.0500 -123.1667 297° West 240 276 9,100 -1,150 Descending Vancouver Center
Tue 11:47:25 AM 49.0667 -123.2333 291° West 230 265 7,700 -1,500 Descending Vancouver Center
Tue 11:48:25 AM 49.0833 -123.3333 284° West 230 265 6,100 -1,300 Descending Vancouver Center
Tue 11:49:25 AM 49.1000 -123.4500 282° West 230 265 5,100 -1,050 Descending Vancouver Center
Tue 11:50:25 AM 49.1500 -123.5167 319° Northwest 230 265 4,000 -942 Descending Vancouver Center
Tue 11:51:26 AM 49.2000 -123.4667 33° Northeast 240 276 3,200 -700 Descending Vancouver Center
Tue 11:52:25 AM 49.2000 -123.3833 90° East 220 253 2,600 -807 Descending Vancouver Center
Tue 11:53:25 AM 49.2000 -123.3167 90° East 190 219 1,600 -850 Descending Vancouver Center
Tue 11:54:25 AM 49.1833 -123.2667 117° Southeast 130 150 900 -700 Descending Vancouver Center
Tue 11:55:25 AM 49.1833 -123.2167 90° East 120 138 200 -700 Descending Vancouver Center

Login

Don't have an account? Register now (free) for customized features, flight alerts, and more!